Lid_Strength_Index
3 3 3 3 3 3 4 4 4 4 4 4 4 4 4 4 4 4 4 4 5 5 5 5 4 4 6 10 10 8 -1 -1 3 8 9 11 12 12 12 13 12 13 8 7 7 7 7
3 3 3 3 4 3 4 4 3 3 3 3 4 4 4 4 4 4 4 4 5 5 5 4 4 4 8 14 9 4 5 6 7 9 9 10 11 11 13 13 13 9 8 8 7 7 7
2 3 3 3 2 3 3 3 3 2 3 3 3 3 4 4 4 4 4 4 5 5 4 3 3 4 8 12 6 5 6 8 8 8 10 10 9 10 11 12 9 7 10 8 8 8 8
2 2 2 2 2 2 2 2 2 2 3 3 4 4 3 4 4 4 4 4 4 4 3 3 3 5 12 8 6 6 6 7 5 8 8 8 9 10 10 10 13 10 10 14 9 8 8
1 1 1 2 2 2 2 2 2 2 2 3 3 4 4 3 4 4 4 4 4 3 2 2 6 8 11 4 5 4 6 7 6 7 8 6 8 10 10 12 15 15 15 14 12 9 9
1 1 1 2 2 2 2 2 2 2 2 3 3 4 4 3 4 4 4 4 4 3 3 3 3 10 8 7 4 5 6 6 7 8 9 10 11 12 14 14 17 15 14 15 13 9 9
1 2 2 2 2 2 3 3 3 3 3 3 3 4 4 3 3 4 5 6 7 7 7 9 7 9 7 5 4 6 6 6 7 9 12 11 13 14 12 12 12 13 13 13 11 9 11
1 2 2 2 2 3 3 3 3 3 3 3 3 4 4 3 3 4 7 7 5 6 8 6 6 7 5 5 7 5 7 9 9 11 11 12 14 11 10 11 12 12 13 14 12 9 10
2 2 2 2 2 3 3 3 3 3 3 3 3 4 4 3 4 6 8 7 5 7 10 7 5 6 6 6 7 6 8 9 10 11 12 13 11 9 10 11 12 13 13 13 12 10 10
2 2 2 3 3 3 3 3 3 3 3 3 3 3 3 4 7 7 6 5 6 7 12 10 8 6 5 5 6 4 6 8 10 10 11 11 9 9 10 11 11 14 10 11 10 12 15
2 3 3 3 3 3 3 4 4 4 4 4 4 4 4 4 8 8 4 7 7 6 16 7 7 5 4 7 7 6 6 7 9 9 10 11 10 10 11 10 9 11 9 10 10 11 13
2 2 2 2 2 3 3 3 3 3 3 4 4 4 4 6 8 8 6 8 6 11 16 9 8 7 8 6 6 6 8 7 7 10 10 9 8 9 9 8 9 8 11 13 13 14 17
2 2 2 3 3 3 3 3 3 3 3 3 3 3 4 4 7 6 7 6 11 15 8 10 9 8 8 8 7 7 9 10 12 14 13 10 10 9 8 10 10 11 14 17 18 17 17
2 2 2 3 3 3 3 3 4 3 4 4 4 4 5 4 7 6 5 9 15 10 10 8 8 8 9 8 8 8 9 11 9 12 14 15 14 11 8 11 12 12 14 17 19 19 17
2 3 2 2 3 3 3 3 3 4 4 4 5 7 7 7 5 7 8 13 13 10 8 9 9 12 12 10 9 9 10 10 9 10 13 14 13 8 7 7 10 11 14 13 16 17 17
3 3 3 3 3 3 3 3 3 3 4 5 8 7 5 4 5 6 11 13 10 7 7 8 11 10 13 11 11 11 11 9 9 8 10 11 15 9 8 8 8 10 10 15 16 19 19
3 3 3 3 3 3 3 3 3 3 5 6 6 6 4 4 5 8 12 12 9 6 6 8 9 10 10 10 10 11 11 9 7 8 8 9 12 12 9 11 12 12 13 12 13 15 18
3 3 3 3 3 3 3 3 3 4 6 7 6 9 5 5 9 11 10 8 7 8 7 7 8 9 10 10 11 11 11 9 7 7 10 10 12 15 13 9 8 10 13 13 17 18 15
3 3 3 3 3 3 3 3 3 4 6 7 7 7 6 6 11 11 9 9 7 8 9 9 9 8 8 10 12 10 9 7 7 8 10 9 13 17 15 12 10 12 11 12 13 13 17
3 3 3 3 3 3 3 3 3 3 5 6 7 10 8 8 9 9 11 10 10 7 7 8 9 8 10 10 9 10 10 8 7 7 6 7 12 14 17 16 12 14 12 11 13 16 16
3 3 3 3 3 2 2 2 2 3 3 6 8 9 8 12 10 10 10 9 10 9 7 7 8 8 9 11 11 11 9 10 8 6 8 11 13 13 12 11 11 12 13 13 13 13 15
3 3 3 3 3 2 2 2 2 3 3 5 8 8 9 11 10 10 9 10 9 9 8 9 10 8 9 11 10 11 10 10 10 8 10 11 12 12 13 10 10 13 12 13 13 14 14
3 3 3 3 2 2 2 2 2 2 3 6 6 6 8 10 10 10 10 9 8 8 7 7 8 9 9 8 7 7 7 9 9 11 11 12 13 14 16 12 12 15 13 13 14 13 14
3 3 3 3 3 2 2 2 2 2 3 6 6 7 10 11 10 10 8 7 8 8 9 7 7 9 6 4 5 7 8 8 8 9 9 12 13 14 16 14 20 13 9 10 12 12 13
4 3 3 3 3 2 2 2 2 2 2 5 5 7 9 11 9 8 8 9 8 8 8 8 6 5 5 6 10 12 12 11 11 9 9 9 11 15 17 17 15 12 11 11 12 13 11
4 4 3 3 3 2 2 2 2 2 2 5 5 6 8 10 10 6 9 9 10 9 9 7 5 5 6 9 11 15 17 14 14 12 8 9 9 13 15 18 20 13 9 7 8 17 10
4 4 4 3 3 2 2 2 1 1 2 4 5 5 6 9 8 8 9 9 8 9 10 9 7 7 7 10 13 15 15 11 15 15 14 13 13 15 16 16 15 10 8 7 15 16 10
4 4 4 3 3 3 2 2 2 1 1 4 5 5 5 9 8 6 6 8 8 8 10 8 9 8 10 12 12 13 14 13 13 11 13 14 15 17 15 18 20 8 8 13 10 8 7
5 5 4 3 3 3 3 2 2 2 2 3 7 5 4 7 7 4 4 4 5 5 7 8 8 9 9 11 12 11 13 12 13 16 9 14 12 16 15 15 10 8 9 8 7 7 7